Location: Les Jeannots
(43.2262°N, 5.5774°E)
Time: 02:53:08
(UTC+00:00)

IRIS - Pass Details

Date: 05 July 2020
Orbit: 279 x 2722 km, 41.2° (Epoch: 04 August)

Event Time Altitude Azimuth Distance (km) Brightness Sun altitude
Rises 20:34:51 0° 255° (WSW) 2,653 8.7 -11.3°
Reaches altitude 10° 20:37:29 10° 250° (WSW) 1,496 7.3 -11.6°
Maximum altitude 20:40:31 48° 174° (S) 442 4.0 -12.0°
Enters shadow 20:41:49 22° 108° (ESE) 724 4.9 -12.1°
